Regional Weather Roundup
Issued by NWS Midland/Odessa, TX

Skip options and go directly to product.
Home | Oldest Version | Previous Version | Current Version | All | Graphics & Text | Save Text | Print | Product List | Glossary On

Skip product version selection by date and time.   
585
ASUS44 KMAF 281610
RWRMAF
MIDLAND AREA WEATHER ROUNDUP
NATIONAL WEATHER SERVICE MIDLAND TX
1100 AM CDT THU MAY 28 2015

...IN SOUTHWEST TEXAS AND SOUTHEAST NEW MEXICO...

CITY           SKY/WX    TMP DP  RH WIND       PRES   REMARKS
ALPINE         MOSUNNY   81  54  38 SW17G25   30.14F
ANDREWS        PTSUNNY   74  67  77 SE15G24   30.05F
ARTESIA        PTSUNNY   73  64  73 SE13      30.04F
BIG SPRING     PTSUNNY   79  66  63 S18G24    30.09S
CARLSBAD       MOSUNNY   74  64  71 SE7       30.01S
DRYDEN           N/A     82  66  58 VRB5      29.97F
FORT STOCKTON  MOSUNNY   77  67  71 E10       30.02F
GUAD PASS      MOSUNNY   70  57  63 SW21G26   30.12S
HOBBS          PTSUNNY   72  70  94 SE15      30.07S
MARFA          SUNNY     75  59  57 SE16G28   30.15S
MIDLAND AIRPK  LGT RAIN  74  67  78 SE16G23   30.04F
MIDLAND INTL   LGT RAIN  73  67  81 SE20      30.04S
ODESSA         PTSUNNY   75  66  73 S24G33    30.04S
PECOS          SUNNY     78  65  65 S7        29.99S
PRESIDIO       FAIR      85  61  43 MISG      30.00S
SEMINOLE       CLOUDY    73  64  73 SE12G22   30.06S
SNYDER         PTSUNNY   77  68  75 S17       30.06R
WINK           PTSUNNY   81  65  58 SE16      30.00R
$$
...OTHER STATIONS IN TEXAS...

CITY           SKY/WX    TMP DP  RH WIND       PRES   REMARKS
ABILENE        MOSUNNY   79  68  69 S13       30.06S
AMARILLO       CLOUDY    66  58  75 E14       30.09F
AUSTIN         CLOUDY    81  74  79 SE12      30.06R
BROWNSVILLE    MOSUNNY   87  75  67 S21       30.02S
CORPUS CHRISTI PTSUNNY   86  74  67 S16G24    30.03S
DALLAS FTW     PTSUNNY   80  70  71 S10       30.08F
DEL RIO        CLOUDY    77  72  84 E10       30.01F
EL PASO        MOSUNNY   82  26  13 CALM      30.04S
HOUSTON INT    PTSUNNY   86  74  67 S8        30.08R
LUBBOCK        CLOUDY    72  65  78 CALM      30.10R
SAN ANGELO     CLOUDY    78  67  68 S9        30.05S
SAN ANTONIO    PTSUNNY   83  74  74 S14       30.06S
WACO           PTSUNNY   81  71  71 S10       30.09R
WICHITA FALLS  NOT AVBL
$$
...OTHER LOCATIONS IN NEW MEXICO...

CITY           SKY/WX    TMP DP  RH WIND       PRES   REMARKS
ALAMAGORDO     SUNNY     77  46  33 CALM      30.06F
ALBUQUERQUE    MOSUNNY   69  33  26 SW3       30.15S
CANNON AFB     PTSUNNY   71  63  76 S15       30.09S
CLOVIS         CLOUDY    70  63  78 SE18        N/A
HOLLOMAN AFB   SUNNY     78  49  34 NW1       30.04F
ROSWELL        PTSUNNY   76  63  64 S13       30.02F
RUIDOSO        SUNNY     72  23  16 MISG      30.22F
SANTA FE       SUNNY     68  33  27 VRB3      30.16F
TRUTH OR CONSE SUNNY     78  26  14 VRB3      30.09F
TUCUMCARI      MOSUNNY   75  61  61 S15       30.04F
$$

USA.gov is the U.S. government's official web portal to all federal, state and local government web resources and services.